When you browse on this site, cookies collect data to enhance your experience and personalize the content and advertising you see.
Visit our Privacy Policy to learn more. By continuing to use the site, you agree to this use of cookies and data.

Météo par heure à Bolshoe Sonino

Ce jour, 11 Juillet, Samedi

Heure Température Précipitation Vent Pression Humidité
00:00 +14°C° 0 mm 3 m/s 750 mmHg 85%
01:00 +13°C° 0 mm 3 m/s 750 mmHg 85%
02:00 +14°C° 0 mm 2 m/s 750 mmHg 84%
03:00 +14°C° 0 mm 2 m/s 750 mmHg 84%
04:00 +13°C° 0 mm 3 m/s 750 mmHg 84%
05:00 +14°C° 0 mm 3 m/s 750 mmHg 84%
06:00 +17°C° 0 mm 3 m/s 751 mmHg 80%
07:00 +18°C° 0 mm 4 m/s 751 mmHg 76%
08:00 +20°C° 0 mm 5 m/s 751 mmHg 72%
09:00 +21°C° 0 mm 5 m/s 750 mmHg 70%
10:00 +22°C° 0 mm 5 m/s 750 mmHg 68%
11:00 +25°C° 0 mm 5 m/s 750 mmHg 66%
12:00 +25°C° 0 mm 5 m/s 750 mmHg 67%
13:00 +26°C° 0 mm 5 m/s 750 mmHg 67%
14:00 +26°C° 0 mm 5 m/s 750 mmHg 67%
15:00 +26°C° 0 mm 5 m/s 750 mmHg 70%
16:00 +26°C° 0 mm 4 m/s 749 mmHg 72%
17:00 +25°C° 0 mm 4 m/s 749 mmHg 75%
18:00 +23°C° 0 mm 4 m/s 749 mmHg 80%
19:00 +22°C° 0 mm 3 m/s 749 mmHg 85%
20:00 +20°C° 0 mm 3 m/s 749 mmHg 90%
21:00 +19°C° 0 mm 3 m/s 749 mmHg 91%
22:00 +19°C° 0 mm 3 m/s 749 mmHg 92%
23:00 +18°C° 0 mm 3 m/s 749 mmHg 93%

Demain, 12 Juillet, Dimanche

Heure Température Précipitation Vent Pression Humidité
00:00 +18°C° 0 mm 3 m/s 749 mmHg 93%
01:00 +17°C° 0 mm 3 m/s 748 mmHg 93%
02:00 +17°C° 0 mm 3 m/s 748 mmHg 94%
03:00 +17°C° 0 mm 3 m/s 748 mmHg 92%
04:00 +17°C° 0 mm 3 m/s 748 mmHg 91%
05:00 +17°C° 0 mm 2 m/s 748 mmHg 90%
06:00 +19°C° 0 mm 2 m/s 748 mmHg 85%
07:00 +21°C° 0 mm 3 m/s 748 mmHg 80%
08:00 +22°C° 0 mm 3 m/s 748 mmHg 76%
09:00 +24°C° 0 mm 3 m/s 747 mmHg 73%
10:00 +25°C° 0 mm 3 m/s 747 mmHg 70%
11:00 +26°C° 0 mm 3 m/s 747 mmHg 67%
12:00 +27°C° 0 mm 4 m/s 747 mmHg 66%
13:00 +27°C° 0 mm 4 m/s 746 mmHg 65%
14:00 +27°C° 0 mm 4 m/s 746 mmHg 64%
15:00 +27°C° 0 mm 3 m/s 746 mmHg 67%
16:00 +27°C° 0 mm 3 m/s 745 mmHg 69%
17:00 +26°C° 0 mm 3 m/s 745 mmHg 71%
18:00 +24°C° 0 mm 2 m/s 745 mmHg 76%
19:00 +23°C° 0 mm 2 m/s 745 mmHg 80%
20:00 +20°C° 0 mm 2 m/s 744 mmHg 84%
21:00 +19°C° 0 mm 2 m/s 744 mmHg 84%
22:00 +19°C° 0 mm 2 m/s 744 mmHg 85%
23:00 +18°C° 0 mm 2 m/s 744 mmHg 86%

Après-demain, 13 Juillet, Lundi

Heure Température Précipitation Vent Pression Humidité
00:00 +18°C° 0 mm 2 m/s 744 mmHg 87%
01:00 +17°C° 0 mm 2 m/s 743 mmHg 88%
02:00 +18°C° 0 mm 1 m/s 743 mmHg 89%
03:00 +18°C° 0 mm 1 m/s 743 mmHg 89%
04:00 +18°C° 0 mm 1 m/s 743 mmHg 88%
05:00 +19°C° 0 mm 1 m/s 742 mmHg 87%
06:00 +20°C° 0 mm 1 m/s 742 mmHg 82%
07:00 +20°C° 0 mm 0 m/s 742 mmHg 76%
08:00 +22°C° 0 mm 0 m/s 742 mmHg 71%
09:00 +23°C° 0.1 mm 0 m/s 742 mmHg 68%
10:00 +25°C° 0.1 mm 1 m/s 742 mmHg 65%
11:00 +26°C° 0.1 mm 1 m/s 742 mmHg 62%
12:00 +26°C° 0.1 mm 1 m/s 741 mmHg 61%
13:00 +27°C° 0.1 mm 1 m/s 741 mmHg 60%
14:00 +27°C° 0.1 mm 1 m/s 741 mmHg 60%
15:00 +26°C° 0.7 mm 2 m/s 741 mmHg 67%
16:00 +25°C° 0.7 mm 2 m/s 740 mmHg 74%
17:00 +24°C° 0.7 mm 3 m/s 740 mmHg 81%
18:00 +22°C° 0.9 mm 3 m/s 740 mmHg 85%
19:00 +20°C° 0.9 mm 4 m/s 740 mmHg 89%
20:00 +19°C° 0.9 mm 5 m/s 740 mmHg 93%
21:00 +17°C° 2 mm 5 m/s 740 mmHg 94%
22:00 +17°C° 2 mm 5 m/s 740 mmHg 96%
23:00 +16°C° 2 mm 5 m/s 740 mmHg 97%

14 Juillet, Mardi

Heure Température Précipitation Vent Pression Humidité
00:00 +16°C° 1.9 mm 5 m/s 740 mmHg 97%
01:00 +16°C° 1.9 mm 5 m/s 739 mmHg 97%
02:00 +16°C° 1.9 mm 5 m/s 739 mmHg 97%
03:00 +15°C° 2.7 mm 5 m/s 739 mmHg 97%
04:00 +15°C° 2.7 mm 5 m/s 739 mmHg 97%
05:00 +15°C° 2.7 mm 5 m/s 739 mmHg 97%
06:00 +15°C° 1.5 mm 6 m/s 739 mmHg 97%
07:00 +15°C° 1.5 mm 6 m/s 740 mmHg 96%
08:00 +15°C° 1.5 mm 6 m/s 740 mmHg 96%
09:00 +15°C° 0.1 mm 6 m/s 740 mmHg 95%
10:00 +15°C° 0.1 mm 6 m/s 740 mmHg 93%
11:00 +16°C° 0.1 mm 6 m/s 740 mmHg 92%
12:00 +16°C° 0 mm 6 m/s 740 mmHg 89%
13:00 +17°C° 0 mm 6 m/s 740 mmHg 87%
14:00 +19°C° 0 mm 6 m/s 740 mmHg 84%
15:00 +19°C° 0 mm 6 m/s 740 mmHg 84%
16:00 +17°C° 0 mm 5 m/s 740 mmHg 84%
17:00 +17°C° 0 mm 5 m/s 740 mmHg 84%
18:00 +18°C° 0 mm 4 m/s 741 mmHg 85%
19:00 +17°C° 0 mm 4 m/s 741 mmHg 86%
20:00 +17°C° 0 mm 4 m/s 741 mmHg 88%
21:00 +17°C° 0 mm 4 m/s 741 mmHg 87%
22:00 +15°C° 0 mm 4 m/s 741 mmHg 87%
23:00 +15°C° 0 mm 4 m/s 741 mmHg 86%

15 Juillet, Mercredi

Heure Température Précipitation Vent Pression Humidité
00:00 +15°C° 0 mm 4 m/s 741 mmHg 84%
01:00 +15°C° 0 mm 5 m/s 740 mmHg 81%
02:00 +15°C° 0 mm 5 m/s 740 mmHg 79%
03:00 +15°C° 0.3 mm 5 m/s 740 mmHg 81%
04:00 +15°C° 0.3 mm 5 m/s 740 mmHg 82%
05:00 +14°C° 0.3 mm 5 m/s 740 mmHg 84%
06:00 +15°C° 0.2 mm 5 m/s 741 mmHg 83%
07:00 +16°C° 0.2 mm 6 m/s 741 mmHg 81%
08:00 +16°C° 0.2 mm 6 m/s 741 mmHg 79%
09:00 +16°C° 0.6 mm 6 m/s 741 mmHg 81%
10:00 +16°C° 0.6 mm 5 m/s 741 mmHg 83%
11:00 +16°C° 0.6 mm 5 m/s 741 mmHg 85%
12:00 +16°C° 0.9 mm 5 m/s 741 mmHg 85%
13:00 +16°C° 0.9 mm 5 m/s 741 mmHg 86%
14:00 +16°C° 0.9 mm 5 m/s 742 mmHg 86%
15:00 +15°C° 0.6 mm 5 m/s 742 mmHg 88%
16:00 +14°C° 0.6 mm 4 m/s 742 mmHg 90%
17:00 +13°C° 0.6 mm 4 m/s 742 mmHg 91%
18:00 +13°C° 0.2 mm 4 m/s 742 mmHg 92%
19:00 +12°C° 0.2 mm 3 m/s 742 mmHg 92%
20:00 +12°C° 0.2 mm 3 m/s 743 mmHg 92%
21:00 +12°C° 0.1 mm 3 m/s 742 mmHg 92%
22:00 +12°C° 0.1 mm 3 m/s 742 mmHg 92%
23:00 +12°C° 0.1 mm 3 m/s 742 mmHg 93%

16 Juillet, Jeudi

Heure Température Précipitation Vent Pression Humidité
00:00 +12°C° 0.1 mm 3 m/s 742 mmHg 91%
01:00 +12°C° 0.1 mm 3 m/s 742 mmHg 90%
02:00 +12°C° 0.1 mm 4 m/s 742 mmHg 89%
03:00 +12°C° 0 mm 4 m/s 742 mmHg 88%
04:00 +12°C° 0 mm 3 m/s 742 mmHg 88%
05:00 +12°C° 0 mm 3 m/s 742 mmHg 88%
06:00 +13°C° 0 mm 3 m/s 742 mmHg 86%
07:00 +14°C° 0 mm 3 m/s 742 mmHg 85%
08:00 +16°C° 0 mm 3 m/s 742 mmHg 83%
09:00 +17°C° 0.1 mm 4 m/s 742 mmHg 77%
10:00 +19°C° 0.1 mm 4 m/s 742 mmHg 72%
11:00 +20°C° 0.1 mm 4 m/s 742 mmHg 66%
12:00 +21°C° 0.1 mm 4 m/s 742 mmHg 67%
13:00 +21°C° 0.1 mm 4 m/s 741 mmHg 68%
14:00 +21°C° 0.1 mm 4 m/s 741 mmHg 68%
15:00 +21°C° 0.1 mm 3 m/s 741 mmHg 70%
16:00 +21°C° 0.1 mm 3 m/s 741 mmHg 72%
17:00 +21°C° 0.1 mm 2 m/s 741 mmHg 74%
18:00 +19°C° 0 mm 2 m/s 741 mmHg 78%
19:00 +19°C° 0 mm 1 m/s 741 mmHg 82%
20:00 +16°C° 0 mm 1 m/s 741 mmHg 86%
21:00 +15°C° 0 mm 1 m/s 741 mmHg 87%
22:00 +15°C° 0 mm 1 m/s 741 mmHg 88%
23:00 +14°C° 0 mm 1 m/s 741 mmHg 89%
Voir plus